This is the latest recevied weather packets stored in our database for station/object W4KBW. If no packets are shown the sender has not sent any weather packets the latest 10 day(s).
| Time | Temp. | Humidity | Pressure | Rain* | Wind** | Luminosity | Snow |
|---|---|---|---|---|---|---|---|
| 1777469402 | 24.44° C | 100% | 1016.4 hPa | 0 mm | - | - | - |
| 1777468617 | 23.33° C | 100% | 1016.9 hPa | 0 mm | - | - | - |
| 1777468502 | 23.33° C | 100% | 1016.9 hPa | 0 mm | - | - | - |
| 1777467715 | 22.22° C | 100% | 1016.9 hPa | 0 mm | - | - | - |
| 1777467572 | 22.22° C | 100% | 1016.9 hPa | 0 mm | - | - | - |
| 1777466798 | 21.67° C | 100% | 1016.5 hPa | 0 mm | - | - | - |
| 1777466672 | 21.67° C | 100% | 1016.5 hPa | 0 mm | - | - | - |
| 1777465742 | 21.11° C | 100% | 1016.4 hPa | 0 mm | - | - | - |
| 1777464961 | 20.56° C | 100% | 1016.3 hPa | 0 mm | - | - | - |
| 1777464811 | 20.56° C | 100% | 1016.3 hPa | 0 mm | - | - | - |
| 1777464136 | 20° C | 100% | 1016 hPa | 0 mm | - | - | - |
| 1777463912 | 20° C | 100% | 1016 hPa | 0 mm | - | - | - |
| 1777462052 | 18.89° C | 100% | 1015.8 hPa | 0 mm | - | - | - |
| 1777461358 | 18.33° C | 100% | 1015.5 hPa | 0 mm | - | - | - |
| 1777461151 | 18.33° C | 100% | 1015.5 hPa | 0 mm | - | - | - |
| 1777460221 | 18.33° C | 100% | 1015.4 hPa | 0 mm | - | - | - |
| 1777458391 | 18.33° C | 100% | 1014.7 hPa | 0 mm | - | - | - |
| 1777457491 | 18.33° C | 100% | 1014.5 hPa | 0 mm | - | - | - |
| 1777456591 | 18.33° C | 100% | 1014.7 hPa | 0 mm | - | - | - |
| 1777455033 | 18.33° C | 100% | 1014.6 hPa | 0 mm | - | - | - |
| 1777454761 | 18.33° C | 100% | 1014.6 hPa | 0 mm | - | - | - |
| 1777454126 | 18.89° C | 100% | 1014.7 hPa | 0 mm | - | - | - |
| 1777453861 | 18.89° C | 100% | 1014.7 hPa | 0 mm | - | - | - |
| 1777452031 | 18.89° C | 100% | 1014.6 hPa | 0 mm | - | - | - |
| 1777451306 | 18.89° C | 100% | 1014.8 hPa | 0 mm | - | - | - |
* Rain latest hour (hover to see other rain measurements)
** Current wind speed in m/s (hover to see current wind gust speed)